Regional Weather Roundup
Issued by NWS

Home | Current Version | Previous Version | Text Only | Print | Product List | Glossary Off
Versions: 1 2 3 4 5 6 7 8 9 10 11 12 13 14 15 16 17 18 19 20 21 22 23 24 25 26 27 28 29 30 31 32 33 34 35 36 37 38 39 40 41 42 43 44 45 46 47 48 49 50

000
ASUS43 KFSD 130902
RWRSD

WEATHER ROUNDUP FOR SOUTH DAKOTA
NATIONAL WEATHER SERVICE SIOUX FALLS SD
300 AM CST WED DEC 13 2017

NOTE: "FAIR" INDICATES FEW OR NO CLOUDS BELOW 12,000 FEET WITH NO
SIGNIFICANT WEATHER AND/OR OBSTRUCTIONS TO VISIBILITY.


SDZ001>005-009-010-012>017-131000-
NORTHWEST AND NORTH CENTRAL SOUTH DAKOTA

CITY           SKY/WX    TMP DP  RH WIND       PRES   REMARKS
BUFFALO          N/A     42  22  44 NW30G41   29.85R
FAITH            N/A     44  24  45 NW37G49   29.81R
MOBRIDGE       CLOUDY    46  29  51 NW22G40   29.68R
$$

SDZ012>016-024>037-041>051-057-063-072>074-131000-
SOUTHWEST AND SOUTH CENTRAL SOUTH DAKOTA

CITY           SKY/WX    TMP DP  RH WIND       PRES   REMARKS
RAPID CTY ARPT CLEAR     48  17  29 NW31G51   29.92R
PIERRE         CLOUDY    51  27  39 NW33G45   29.73R
CUSTER         CLOUDY    38  13  35 NW12G22   29.96R
ELLSWORTH AFB  CLEAR     47  17  30 NW30G44   29.91R
PHILIP         CLOUDY    51  22  31 NW35G51   29.86R
PINE RIDGE     CLOUDY    40  22  48 NW6       29.96R
SPEARFISH      FAIR      43  18  36 W22G31    29.99S
WINNER         CLOUDY    55  22  27 NW24G35   29.75R
$$

SDZ004>011-016>023-039-040-131000-
NORTHEAST SOUTH DAKOTA

CITY           SKY/WX    TMP DP  RH WIND       PRES   REMARKS
ABERDEEN       CLOUDY    43  33  68 NW30G38   29.58R
WATERTOWN      PTCLDY    41  25  53 NW25G35   29.46R
BROOKINGS      CLOUDY    42  25  50 W22       29.47S
SISSETON         N/A     43  28  55 NW33G43   29.43R
$$

SDZ017-020-022-023-036>040-048>070-131000-
SOUTHEAST SOUTH DAKOTA

CITY           SKY/WX    TMP DP  RH WIND       PRES   REMARKS
SIOUX FALLS    PTCLDY    44  26  49 W16G24    29.52R
HURON          CLOUDY    49  27  42 NW31G43   29.58R
CHAMBERLAIN    CLOUDY    53  28  37 NW25G35   29.69R
MITCHELL       LGT RAIN  51  25  36 NW29G39   29.62R
YANKTON        CLOUDY    48  22  35 W21       29.59S
$$

ABBREVIATIONS USED IN REMARKS
   TC - TEMPERATURE IN CELSIUS
  WCI - WIND CHILL INDEX
   HX - HEAT INDEX
  VSB - VISIBILITY





USA.gov is the U.S. government's official web portal to all federal, state and local government web resources and services.